| time (UTC) | temp C | wind direction | speed KPH | gust KPH | rain 1hr cm | rain 24hr cm | rain mn cm | humidity % | barometer mb |
| 20260831194203 | 27 | 305 | 4.8 | 8.0 | 0.00 | 0.00 | 0.00 | 46 | 1008.5 |
| 20260831193704 | 27 | 305 | 3.2 | 4.8 | 0.00 | 0.00 | 0.00 | 46 | 1008.5 |
| 20260831193203 | 27 | 305 | 3.2 | 8.0 | 0.00 | 0.00 | 0.00 | 45 | 1008.5 |
| 20260831190704 | 28 | 305 | 4.8 | 11.3 | 0.00 | 0.00 | 0.00 | 43 | 1008.5 |
| 20260831184703 | 28 | 345 | 3.2 | 8.0 | 0.00 | 0.00 | 0.00 | 41 | 1007.9 |
| 20260831184203 | 28 | 346 | 3.2 | 4.8 | 0.00 | 0.00 | 0.00 | 40 | 1007.9 |
| 20260831180205 | 30 | 348 | 0.0 | 4.8 | 0.00 | 0.00 | 0.00 | 37 | 1007.9 |
| 20260831174205 | 31 | 348 | 1.6 | 4.8 | 0.00 | 0.00 | 0.00 | 34 | 1007.9 |
| 20260831173205 | 32 | 347 | 1.6 | 4.8 | 0.00 | 0.00 | 0.00 | 34 | 1007.9 |
| 20260831171205 | 32 | 338 | 1.6 | 4.8 | 0.00 | 0.00 | 0.00 | 33 | 1007.9 |
| 20260831170705 | 32 | 336 | 3.2 | 8.0 | 0.00 | 0.00 | 0.00 | 32 | 1007.9 |
| 20260831164705 | 32 | 334 | 3.2 | 8.0 | 0.00 | 0.00 | 0.00 | 33 | 1007.9 |
| 20260831164205 | 32 | 355 | 3.2 | 4.8 | 0.00 | 0.00 | 0.00 | 32 | 1007.9 |
| 20260831163705 | 32 | 356 | 3.2 | 4.8 | 0.00 | 0.00 | 0.00 | 33 | 1007.9 |
| 20260831163205 | 32 | 5 | 3.2 | 4.8 | 0.00 | 0.00 | 0.00 | 32 | 1007.9 |
| 20260831154704 | 33 | 0 | 0.0 | 4.8 | 0.00 | 0.00 | 0.00 | 28 | 1008.2 |
| 20260831154205 | 33 | 0 | 1.6 | 4.8 | 0.00 | 0.00 | 0.00 | 29 | 1008.2 |
| 20260831153204 | 33 | 324 | 1.6 | 9.7 | 0.00 | 0.00 | 0.00 | 31 | 1008.2 |
| 20260831151705 | 33 | 18 | 3.2 | 8.0 | 0.00 | 0.00 | 0.00 | 30 | 1008.2 |
| 20260831151205 | 33 | 36 | 3.2 | 4.8 | 0.00 | 0.00 | 0.00 | 30 | 1008.3 |
| 20260831150705 | 33 | 40 | 4.8 | 9.7 | 0.00 | 0.00 | 0.00 | 30 | 1008.3 |
| 20260831144705 | 33 | 11 | 1.6 | 9.7 | 0.00 | 0.00 | 0.00 | 29 | 1008.3 |
| 20260831134705 | 33 | 49 | 3.2 | 8.0 | 0.00 | 0.00 | 0.00 | 30 | 1008.5 |
| 20260831134204 | 33 | 50 | 3.2 | 8.0 | 0.00 | 0.00 | 0.00 | 30 | 1008.5 |
| 20260831131705 | 33 | 16 | 1.6 | 4.8 | 0.00 | 0.00 | 0.00 | 32 | 1008.5 |
| 20260831131204 | 33 | 5 | 3.2 | 8.0 | 0.00 | 0.00 | 0.00 | 31 | 1009.0 |
| 20260831130705 | 33 | 14 | 4.8 | 9.7 | 0.00 | 0.00 | 0.00 | 31 | 1009.0 |
| 20260831124705 | 32 | 9 | 4.8 | 11.3 | 0.00 | 0.00 | 0.00 | 33 | 1009.0 |
| 20260831124205 | 32 | 9 | 3.2 | 11.3 | 0.00 | 0.00 | 0.00 | 33 | 1009.0 |
| 20260831123705 | 32 | 4 | 3.2 | 4.8 | 0.00 | 0.00 | 0.00 | 33 | 1009.5 |
| 20260831121204 | 32 | 19 | 3.2 | 9.7 | 0.00 | 0.00 | 0.00 | 35 | 1009.5 |
| 20260831113205 | 31 | 51 | 3.2 | 8.0 | 0.00 | 0.00 | 0.00 | 35 | 1009.8 |
| 20260831110705 | 31 | 16 | 3.2 | 8.0 | 0.00 | 0.00 | 0.00 | 37 | 1009.8 |
| 20260831110205 | 31 | 37 | 4.8 | 16.1 | 0.00 | 0.00 | 0.00 | 38 | 1010.0 |
| 20260831103204 | 31 | 326 | 4.8 | 11.3 | 0.00 | 0.00 | 0.00 | 38 | 1010.0 |
| 20260831101205 | 31 | 50 | 3.2 | 8.0 | 0.00 | 0.00 | 0.00 | 37 | 1010.0 |
| 20260831094204 | 31 | 44 | 1.6 | 4.8 | 0.00 | 0.00 | 0.00 | 38 | 1010.0 |
| 20260831093204 | 30 | 44 | 3.2 | 4.8 | 0.00 | 0.00 | 0.00 | 38 | 1010.2 |
| 20260831091704 | 30 | 26 | 1.6 | 4.8 | 0.00 | 0.00 | 0.00 | 38 | 1010.2 |
| 20260831084204 | 28 | 9 | 0.0 | 3.2 | 0.00 | 0.00 | 0.00 | 40 | 1010.1 |
| 20260831083704 | 28 | 9 | 1.6 | 4.8 | 0.00 | 0.00 | 0.00 | 41 | 1010.1 |
| 20260831083205 | 28 | 9 | 3.2 | 4.8 | 0.00 | 0.00 | 0.00 | 40 | 1010.1 |
| 20260831081704 | 28 | 5 | 3.2 | 4.8 | 0.00 | 0.00 | 0.00 | 40 | 1010.1 |
| 20260831081204 | 28 | 5 | 1.6 | 3.2 | 0.00 | 0.00 | 0.00 | 40 | 1010.1 |
| 20260831080704 | 28 | 5 | 0.0 | 3.2 | 0.00 | 0.00 | 0.00 | 41 | 1010.1 |
| 20260831074705 | 27 | 0 | 0.0 | 3.2 | 0.00 | 0.00 | 0.00 | 45 | 1010.1 |
| 20260831073704 | 27 | 0 | 0.0 | 1.6 | 0.00 | 0.00 | 0.00 | 45 | 1010.0 |
| 20260831071704 | 26 | 0 | 0.0 | 0.0 | 0.00 | 0.00 | 0.00 | 47 | 1010.0 |
| 20260831070204 | 25 | 267 | 1.6 | 4.8 | 0.00 | 0.00 | 0.00 | 47 | 1010.0 |
| 20260831064704 | 24 | 267 | 1.6 | 3.2 | 0.00 | 0.00 | 0.00 | 49 | 1009.9 |
| 20260831063705 | 23 | 267 | 1.6 | 3.2 | 0.00 | 0.00 | 0.00 | 50 | 1009.9 |
| 20260831061704 | 23 | 267 | 3.2 | 4.8 | 0.00 | 0.00 | 0.00 | 51 | 1009.8 |
| 20260831061205 | 22 | 267 | 3.2 | 9.7 | 0.00 | 0.00 | 0.00 | 51 | 1009.5 |
| 20260831060705 | 22 | 267 | 8.0 | 12.9 | 0.00 | 0.00 | 0.00 | 52 | 1009.5 |
| 20260831060204 | 22 | 267 | 4.8 | 9.7 | 0.00 | 0.00 | 0.00 | 54 | 1009.5 |
| 20260831053705 | 21 | 267 | 1.6 | 4.8 | 0.00 | 0.00 | 0.00 | 57 | 1009.5 |
| 20260831053204 | 21 | 267 | 4.8 | 8.0 | 0.00 | 0.00 | 0.00 | 56 | 1009.5 |
| 20260831051705 | 21 | 267 | 3.2 | 4.8 | 0.00 | 0.00 | 0.00 | 57 | 1009.5 |
| 20260831051205 | 21 | 267 | 4.8 | 4.8 | 0.00 | 0.00 | 0.00 | 57 | 1009.5 |
| 20260831044705 | 21 | 267 | 4.8 | 8.0 | 0.00 | 0.00 | 0.00 | 56 | 1009.5 |
| 20260831044204 | 21 | 267 | 4.8 | 4.8 | 0.00 | 0.00 | 0.00 | 56 | 1009.5 |
| 20260831043705 | 21 | 267 | 4.8 | 8.0 | 0.00 | 0.00 | 0.00 | 56 | 1009.3 |
| 20260831043205 | 21 | 267 | 3.2 | 11.3 | 0.00 | 0.00 | 0.00 | 56 | 1009.3 |
| 20260831041704 | 21 | 267 | 1.6 | 4.8 | 0.00 | 0.00 | 0.00 | 57 | 1009.3 |
| 20260831041205 | 21 | 267 | 1.6 | 4.8 | 0.00 | 0.00 | 0.00 | 57 | 1009.3 |
| 20260831034704 | 21 | 267 | 3.2 | 9.7 | 0.00 | 0.00 | 0.00 | 55 | 1009.2 |
| 20260831034204 | 21 | 267 | 3.2 | 8.0 | 0.00 | 0.00 | 0.00 | 55 | 1009.5 |
| 20260831033205 | 21 | 267 | 3.2 | 14.5 | 0.00 | 0.00 | 0.00 | 54 | 1009.5 |
| 20260831031205 | 22 | 284 | 8.0 | 11.3 | 0.00 | 0.00 | 0.00 | 54 | 1009.5 |
| 20260831030704 | 21 | 286 | 6.4 | 11.3 | 0.00 | 0.00 | 0.00 | 55 | 1009.5 |
| 20260831030204 | 21 | 286 | 6.4 | 9.7 | 0.00 | 0.00 | 0.00 | 55 | 1009.5 |
| 20260831024706 | 21 | 286 | 3.2 | 4.8 | 0.00 | 0.00 | 0.00 | 58 | 1009.6 |
| 20260831020704 | 21 | 287 | 3.2 | 9.7 | 0.00 | 0.00 | 0.00 | 57 | 1009.9 |
| 20260831020205 | 21 | 287 | 8.0 | 8.0 | 0.00 | 0.00 | 0.00 | 58 | 1009.9 |
| 20260831014704 | 22 | 287 | 1.6 | 4.8 | 0.00 | 0.00 | 0.00 | 56 | 1009.9 |
| 20260831014204 | 22 | 287 | 3.2 | 4.8 | 0.00 | 0.00 | 0.00 | 56 | 1009.9 |
| 20260831013705 | 22 | 287 | 1.6 | 4.8 | 0.00 | 0.00 | 0.00 | 56 | 1009.8 |
| 20260831011204 | 22 | 287 | 1.6 | 4.8 | 0.00 | 0.00 | 0.00 | 56 | 1009.8 |
| 20260831010705 | 22 | 287 | 1.6 | 4.8 | 0.00 | 0.00 | 0.00 | 56 | 1009.8 |
| 20260831004705 | 22 | 287 | 3.2 | 4.8 | 0.00 | 0.00 | 0.00 | 57 | 1010.0 |
| 20260831001704 | 22 | 287 | 4.8 | 8.0 | 0.00 | 0.00 | 0.00 | 55 | 1010.0 |
| 20260831001204 | 22 | 287 | 3.2 | 4.8 | 0.00 | 0.00 | 0.00 | 55 | 1010.0 |
| 20260831000204 | 22 | 287 | 3.2 | 4.8 | 0.00 | 0.00 | 0.00 | 55 | 1010.0 |
| 20260830234704 | 23 | 287 | 1.6 | 4.8 | 0.00 | 0.00 | 0.00 | 54 | 1010.0 |
| 20260830233704 | 23 | 287 | 1.6 | 4.8 | 0.00 | 0.00 | 0.00 | 54 | 1010.0 |
| 20260830230706 | 23 | 287 | 4.8 | 9.7 | 0.00 | 0.00 | 0.00 | 53 | 1010.0 |
| 20260830221704 | 23 | 5 | 3.2 | 4.8 | 0.00 | 0.00 | 0.00 | 54 | 1009.8 |
| 20260830220705 | 23 | 5 | 1.6 | 4.8 | 0.00 | 0.00 | 0.00 | 54 | 1009.8 |
| 20260830214704 | 23 | 5 | 1.6 | 3.2 | 0.00 | 0.00 | 0.00 | 53 | 1009.8 |
| 20260830213704 | 23 | 5 | 1.6 | 3.2 | 0.00 | 0.00 | 0.00 | 53 | 1009.7 |
| 20260830213204 | 23 | 5 | 1.6 | 4.8 | 0.00 | 0.00 | 0.00 | 53 | 1009.5 |
| 20260830211204 | 24 | 5 | 1.6 | 4.8 | 0.00 | 0.00 | 0.00 | 53 | 1009.5 |
| 20260830201703 | 25 | 5 | 3.2 | 4.8 | 0.00 | 0.00 | 0.00 | 50 | 1009.5 |
| 20260830200203 | 25 | 5 | 1.6 | 3.2 | 0.00 | 0.00 | 0.00 | 50 | 1009.5 |